Location: Ehrke Reservoir
(40.0279°N, 99.6641°W)
Time: 10:39:32
(UTC+00:00)

COSMOS 2428 - Pass Details

Date: 20 January 2020
Orbit: 844 x 858 km, 70.9° (Epoch: 18 February)

Event Time Altitude Azimuth Distance (km) Brightness Sun altitude
Rises 00:09:54 0° 340° (NNW) 3,439 5.9 -5.7°
Reaches altitude 10° 00:12:25 10° 344° (NNW) 2,499 5.1 -6.2°
Maximum altitude 00:18:05 58° 63° (ENE) 997 2.8 -7.2°
Drops below altitude 10° 00:23:42 10° 143° (SE) 2,482 5.0 -8.2°
Sets 00:26:11 0° 147° (SSE) 3,414 5.7 -8.6°
